Terminal Aerodrome Forecast
Issued by NWS

Home | Current Version | Previous Version | Text Only | Print | Product List | Glossary On
Versions: 1 2 3 4 5 6 7 8 9 10 11 12 13 14 15 16 17
000
FTUS42 KTBW 010600 AAA
TAFPGD
TAF AMD
KPGD 010612Z 0106/0206 VRB03KT P6SM VCSH SCT015 BKN035
      TEMPO 0106/0109 SCT010 BKN015 OVC025
     FM011500 25006KT P6SM VCTS SCT025CB BKN080
     FM012000 27008KT P6SM VCTS SCT030CB BKN080
     FM020100 VRB03KT P6SM FEW025 BKN250=

USA.gov is the U.S. government's official web portal to all federal, state and local government web resources and services.